Location: Unspecified
(47.9110°N, 14.3980°E)
Time: 05:40:54
(UTC+00:00)

Cosmos 1503 Rocket - Pass Details

Date: 06 August 2020
Orbit: 753 x 790 km, 74.0° (Epoch: 19 September)

Event Time Altitude Azimuth Distance (km) Brightness Sun altitude
Exits shadow 23:16:25 49° 107° (ESE) 1,017 4.4 -25.7°
Maximum altitude 23:16:27 49° 105° (ESE) 1,017 4.4 -25.7°
Drops below altitude 10° 23:21:36 10° 32° (NNE) 2,364 7.3 -25.7°
Sets 23:24:04 0° 27° (NNE) 3,295 8.3 -25.6°
